Evenes, Norway

6:55 PM CET on December 12, 2017 (GMT +0100)
Evenes

Weather History for ENEV - January, 2015

Change the Weather History Date:

Thursday, January 1, 2015

  Actual Average Record
Temperature  
Mean Temperature 40 °F -  
Max Temperature 44 °F 27 °F 46 °F (2016)
Min Temperature 36 °F 18 °F -2 °F (2003)
Degree Days  
Heating Degree Days 25    
Moisture  
Dew Point 39 °F    
Average Humidity 87    
Maximum Humidity 100    
Minimum Humidity 75    
Precipitation  
Precipitation 0.00 in - - ()
Sea Level Pressure  
Sea Level Pressure 29.24 in    
Wind  
Wind Speed 11 mph ()    
Max Wind Speed 22 mph    
Max Gust Speed 37 mph    
Visibility 5.4 miles    
Events Rain    
Averages and records for this station are not official NWS values.
T = Trace of Precipitation, MM = Missing Value Source: Averaged Metar Reports

Daily Weather History Graph

Daily Weather History Graph

Search for Another Location

Airport or City:

Trip Planner

Search our weather history database for the weather conditions in past years. The results will help you decide how hot, cold, wet, or windy it might be!

Date:

Astronomy

Jan. 01, 2015 Rise Set
Actual Time 11:24 AM CET 12:29 PM CET
Civil Twilight 9:17 AM CET 2:35 PM CET
Nautical Twilight 7:46 AM CET 4:06 PM CET
Astronomical Twilight 6:34 AM CET 5:19 PM CET
Moon 11:43 AM CET (1/1) 5:35 AM CET (1/1)
Length of Visible Light 5h 18m
Length of Day
1h 04m
Waxing Gibbous, 86% of the Moon is Illuminated
Jan 1
Waxing Gibbous
Jan 5
Full
Jan 13
Last Quarter
Jan 20
New
Jan 27
First Quarter

Hourly Weather History & Observations

Time (CET) Temp. Windchill Dew Point Humidity Pressure Visibility Wind Dir Wind Speed Gust Speed Precip Events Conditions
12:20 AM 44.6 °F 38.8 °F 42.8 °F 93% 29.36 in 3.7 mi WSW 11.5 mph - N/A   Overcast
12:50 AM 42.8 °F 34.5 °F 42.8 °F 100% 29.36 in 3.1 mi WSW 18.4 mph 34.5 mph N/A   Light Drizzle
1:00 AM 44 °F - 42 °F 89% 29.37 in - SW 17.9 mph - -  
1:20 AM 44.6 °F 36.9 °F 42.8 °F 93% 29.36 in 6.2 mi SW 18.4 mph - N/A   Mostly Cloudy
1:50 AM 44.6 °F 39.2 °F 42.8 °F 93% 29.36 in 3.7 mi WSW 10.4 mph - N/A Rain Rain
2:20 AM 44.6 °F 38.1 °F 42.8 °F 93% 29.33 in 3.1 mi WSW 13.8 mph 25.3 mph N/A Rain Rain
2:50 AM 44.6 °F 38.1 °F 42.8 °F 93% 29.33 in 3.1 mi SW 13.8 mph - N/A Rain Rain
3:20 AM 44.6 °F 37.2 °F 42.8 °F 93% 29.30 in 3.1 mi WSW 17.3 mph 29.9 mph N/A   Overcast
3:50 AM 44.6 °F 38.1 °F 42.8 °F 93% 29.30 in 3.7 mi WSW 13.8 mph 25.3 mph N/A Rain Rain
4:00 AM 45 °F - 43 °F 88% 29.31 in - WSW 15.7 mph - -  
4:20 AM 44.6 °F 38.8 °F 42.8 °F 93% 29.30 in - WSW 11.5 mph - N/A   Drizzle
4:50 AM 44.6 °F 38.4 °F 42.8 °F 93% 29.30 in 6.2 mi WSW 12.7 mph 26.5 mph N/A   Overcast
5:20 AM 44.6 °F 38.8 °F 42.8 °F 93% 29.27 in - WSW 11.5 mph - N/A   Drizzle
5:50 AM 44.6 °F 36.6 °F 42.8 °F 93% 29.27 in 5.0 mi WSW 19.6 mph 33.4 mph N/A Rain Light Rain
6:20 AM 44.6 °F 37.2 °F 42.8 °F 93% 29.27 in 4.3 mi WSW 17.3 mph - N/A Rain Light Rain
6:50 AM 44.6 °F 36.1 °F 42.8 °F 93% 29.27 in 3.7 mi WSW 21.9 mph 36.8 mph N/A   Drizzle
7:00 AM 45 °F - 43 °F 90% 29.29 in - WSW 20.1 mph - -  
7:20 AM 44.6 °F 36.4 °F 42.8 °F 93% 29.27 in 4.3 mi WSW 20.7 mph 35.7 mph N/A   Drizzle
7:50 AM 44.6 °F 36.9 °F 42.8 °F 93% 29.30 in 5.0 mi WSW 18.4 mph 31.1 mph N/A   Mostly Cloudy
8:20 AM 44.6 °F 37.2 °F 41.0 °F 87% 29.30 in 4.3 mi WSW 17.3 mph - N/A Rain Light Rain
8:50 AM 44.6 °F 37.2 °F 39.2 °F 81% 29.30 in 6.2 mi WSW 17.3 mph 32.2 mph N/A   Mostly Cloudy
9:20 AM 44.6 °F 37.8 °F 37.4 °F 76% 29.33 in 6.2 mi SW 15.0 mph 26.5 mph N/A   Mostly Cloudy
9:50 AM 44.6 °F 37.8 °F 39.2 °F 81% 29.33 in 6.2 mi WSW 15.0 mph 26.5 mph N/A   Partly Cloudy
10:00 AM 43 °F - 38 °F 77% 29.35 in - West 8.9 mph - -  
10:20 AM 42.8 °F 38.6 °F 37.4 °F 81% 29.33 in 6.2 mi West 6.9 mph 19.6 mph N/A   Partly Cloudy
10:50 AM 42.8 °F 38.6 °F 37.4 °F 81% 29.33 in 6.2 mi ESE 6.9 mph - N/A   Scattered Clouds
11:20 AM 42.8 °F 37.0 °F 37.4 °F 81% 29.33 in 6.2 mi SW 10.4 mph - N/A   Overcast
11:50 AM 42.8 °F 38.0 °F 37.4 °F 81% 29.33 in 6.2 mi South 8.1 mph - N/A   Overcast
12:20 PM 42.8 °F 38.0 °F 37.4 °F 81% 29.30 in 6.2 mi SW 8.1 mph 19.6 mph N/A   Overcast
12:50 PM 42.8 °F 37.5 °F 37.4 °F 81% 29.30 in 6.2 mi WSW 9.2 mph - N/A   Overcast
1:00 PM 42 °F - 37 °F 75% 29.30 in - WSW 6.7 mph - -  
1:20 PM 42.8 °F 41.1 °F 35.6 °F 76% 29.27 in 6.2 mi South 3.5 mph - N/A   Mostly Cloudy
1:50 PM 41.0 °F 39.0 °F 35.6 °F 81% 29.27 in 6.2 mi WSW 3.5 mph - N/A   Scattered Clouds
2:20 PM 39.2 °F - 35.6 °F 87% 29.24 in 6.2 mi Variable 2.3 mph - N/A   Mostly Cloudy
2:50 PM 39.2 °F - 35.6 °F 87% 29.24 in 6.2 mi Variable 2.3 mph - N/A   Mostly Cloudy
3:50 PM 39.2 °F - 35.6 °F 87% 29.21 in 6.2 mi Variable 1.2 mph - N/A   Mostly Cloudy
4:00 PM 39 °F - 35 °F 81% 29.20 in - SSE 2.2 mph - -  
4:50 PM 41.0 °F - 37.4 °F 87% 29.18 in 6.2 mi Variable 2.3 mph - N/A   Light Drizzle
5:50 PM 39.2 °F - 35.6 °F 87% 29.12 in 6.2 mi Variable 1.2 mph - N/A   Mostly Cloudy
6:50 PM 37.4 °F 34.9 °F 35.6 °F 93% 29.09 in 6.2 mi SSW 3.5 mph - N/A   Overcast
7:00 PM 39 °F - 37 °F 89% 29.09 in - SSW 2.2 mph - -  
7:20 PM 39.2 °F 35.9 °F 35.6 °F 87% 29.06 in 6.2 mi Variable 4.6 mph - N/A Rain Light Rain
7:50 PM 39.2 °F 35.9 °F 35.6 °F 87% 29.06 in 6.2 mi SSE 4.6 mph - N/A Rain Light Rain
8:20 PM 39.2 °F 35.0 °F 37.4 °F 93% 29.03 in 6.2 mi SW 5.8 mph - N/A Rain Light Rain
8:50 PM 39.2 °F 37.0 °F 37.4 °F 93% 29.03 in 6.2 mi Variable 3.5 mph - N/A Rain Light Rain
9:20 PM 41.0 °F 34.3 °F 37.4 °F 87% 29.03 in 6.2 mi SW 11.5 mph - N/A Rain Light Rain
9:50 PM 39.2 °F 34.2 °F 35.6 °F 87% 29.03 in 6.2 mi SSW 6.9 mph - N/A Rain Light Rain
10:00 PM 39 °F - 35 °F 81% 29.03 in - SSE 8.9 mph - -  
10:50 PM 39.2 °F 33.6 °F 35.6 °F 87% 28.97 in 6.2 mi SSE 8.1 mph - N/A   Mostly Cloudy
11:50 PM 39.2 °F 33.6 °F 35.6 °F 87% 28.94 in 6.2 mi SSW 8.1 mph - N/A   Mostly Cloudy